Regional Weather Roundup
Issued by NWS

Home | Current Version | Previous Version | Graphics & Text | Print | Product List | Glossary On
Versions: 1 2 3 4 5 6 7 8 9 10 11 12 13 14 15 16 17 18 19 20 21 22 23 24 25 26 27 28 29 30 31 32 33 34 35 36 37 38 39 40 41 42 43 44 45 46 47 48 49 50
000
ASUS43 KLMK 281902
RWRKY
KENTUCKY REGIONAL WEATHER ROUNDUP
NATIONAL WEATHER SERVICE LOUISVILLE KY
300 PM EDT THU JUL 28 2016

NOTE "FAIR" INDICATES FEW OR NO CLOUDS BELOW 12,000 FEET
WITH NO SIGNIFICANT WEATHER AND/OR OBSTRUCTIONS TO VISIBILITY.

KYZ001>023-026-027-061>063-070>075-282000-
WESTERN AND SOUTH CENTRAL KENTUCKY

CITY           SKY/WX    TMP DP  RH WIND       PRES   REMARKS
PADUCAH        PTSUNNY   87  75  67 W7        29.89F HX  96
HENDERSON      CLOUDY    84  73  70 SW8       29.88F HX  91
OWENSBORO      CLOUDY    85  74  69 W7        29.90F HX  92
HOPKINSVILLE   PTSUNNY   83  72  69 VRB2      29.90F
BOWLING GREEN  CLOUDY    81  71  71 E3        29.91F
GLASGOW        NOT AVBL
$$

KYZ024-025-028>034-038-045-046-053-282000-
NORTH CENTRAL KENTUCKY

CITY           SKY/WX    TMP DP  RH WIND       PRES   REMARKS
LOUISVILLE/SDF PTSUNNY   83  71  67 W6        29.88F
LOUISVILLE/LOU PTSUNNY   82  70  66 W5        29.89F
FORT KNOX      CLOUDY    81  71  71 VRB5      29.89
$$

KYZ035>037-039>044-047>052-055>060-089>105-282000-
NORTHEAST KENTUCKY

CITY           SKY/WX    TMP DP  RH WIND       PRES   REMARKS
LEXINGTON      LGT RAIN  74  71  91 SW6       29.92F
COVINGTON      CLOUDY    79  71  76 VRB3      29.90F
FRANKFORT      PTSUNNY   77  71  82 SW6       29.90F
$$

KYZ054-064>069-076>088-106>120-282000-
SOUTHEAST KENTUCKY

CITY           SKY/WX    TMP DP  RH WIND       PRES   REMARKS
JACKSON        CLOUDY    73  70  90 CALM      29.95S
LONDON         CLOUDY    75  68  78 N9        29.94F
SOMERSET       LGT RAIN  70  70 100 CALM      29.94F
MIDDLESBORO    MOSUNNY   87  70  55 S9G16     29.91F HX  92
MONTICELLO     HVY RAIN N/A N/A N/A W9        29.95F
$$





USA.gov is the U.S. government's official web portal to all federal, state and local government web resources and services.